Cloud_Cover
100 100 100 100 100 97 100 69 93 100 100 100 100 100 100 100 100 62 2 0 0 0 0 0 0 0 0 0 0 0 0 0 0 0 0 0 0 0 0 0 0 2 0 3 5 21 88 27 5 70 13 5 5 2
100 100 100 100 100 100 100 69 100 100 100 100 100 100 100 100 100 100 15 3 0 0 0 0 0 0 0 0 0 0 0 0 0 0 0 0 0 0 0 0 0 4 0 0 0 0 1 4 0 0 0 0 4 5
100 100 100 100 100 100 72 99 100 86 100 100 100 100 100 100 100 100 99 72 5 0 0 0 0 0 0 0 0 0 0 0 0 0 0 0 0 0 0 0 0 0 0 0 0 1 5 7 4 0 0 0 0 0
100 100 100 100 100 100 100 100 100 96 100 100 100 97 100 100 99 100 73 51 2 0 0 0 0 0 0 0 0 0 0 0 0 0 0 0 0 0 0 0 0 0 0 0 1 0 3 0 0 0 0 0 0 0
100 100 100 100 100 100 100 97 48 96 56 45 74 49 0 0 0 0 0 0 0 0 0 0 0 0 0 0 0 0 0 0 0 0 0 0 0 0 0 0 0 0 0 0 0 0 0 0 0 0 0 0 0 0
100 100 100 100 100 100 100 100 100 98 29 12 19 85 4 1 0 0 0 0 0 0 0 0 0 0 0 0 0 0 0 0 0 0 0 0 0 0 0 0 0 0 0 0 0 0 0 0 0 0 0 0 0 0
100 100 100 100 100 100 100 100 100 100 95 89 99 43 5 5 24 25 3 0 3 0 0 0 0 0 0 0 0 0 0 0 0 0 0 0 0 0 0 0 0 0 0 0 0 0 0 0 0 0 0 0 0 0
100 100 100 100 100 100 100 100 100 87 11 30 5 10 5 5 6 5 5 14 18 0 0 0 1 0 0 0 0 0 0 1 0 0 0 0 0 0 0 3 5 0 0 0 0 0 0 0 0 0 0 0 1 34
100 100 100 100 100 100 100 100 100 100 97 85 26 14 10 4 5 9 5 0 0 0 0 0 2 83 5 5 3 4 37 89 53 8 0 2 27 18 0 0 0 0 0 0 0 0 0 0 0 0 0 5 22 100
100 100 100 100 100 100 100 100 100 100 100 100 39 8 27 51 2 5 5 4 4 0 0 0 5 5 3 5 7 20 37 37 0 18 1 0 0 1 0 3 0 0 0 0 0 0 0 0 0 0 0 40 16 100
100 100 100 100 100 100 100 100 100 99 99 99 98 68 95 57 5 15 76 5 6 5 3 4 2 5 98 47 53 11 70 16 0 0 0 2 0 0 0 0 0 0 0 0 0 0 0 0 0 2 16 97 100 100
100 100 100 100 100 100 100 100 100 98 100 96 100 73 100 69 26 72 50 11 5 52 44 5 5 4 26 9 5 3 0 3 2 4 7 5 0 0 0 0 0 0 0 0 0 1 23 0 0 16 100 99 100 100
100 100 100 100 100 100 96 30 100 100 96 100 100 97 72 96 98 64 36 8 14 80 77 13 5 6 34 23 2 0 0 0 4 7 5 3 0 0 1 1 0 0 0 0 1 8 91 93 20 3 18 98 100 100
100 100 100 100 100 100 95 100 100 100 100 78 89 99 83 98 100 98 64 100 62 100 100 44 47 6 12 43 28 5 70 60 17 5 5 5 5 4 0 0 0 0 0 0 0 0 5 8 0 0 4 29 52 100
90 59 100 100 100 100 100 100 98 75 99 64 87 99 100 95 97 99 99 100 99 100 100 100 98 100 69 98 16 62 52 5 24 5 5 5 2 0 0 0 0 0 0 0 5 5 5 5 1 0 0 5 5 61
30 89 100 74 99 100 100 63 93 100 73 74 100 100 64 70 89 100 100 100 100 100 100 100 98 100 97 24 41 18 5 5 6 5 5 0 0 0 0 0 0 0 0 0 1 5 6 5 7 0 0 1 5 11
51 100 100 29 100 100 100 100 97 94 100 62 100 84 97 97 89 100 100 100 100 100 100 100 99 90 94 58 98 12 14 59 23 5 4 0 0 0 0 0 4 5 5 5 5 10 32 47 6 0 0 67 6 5
100 100 100 29 100 100 100 100 100 71 86 100 35 98 84 100 98 100 77 93 100 100 100 100 100 100 77 96 98 37 100 78 6 7 5 0 0 0 0 0 0 4 3 5 24 57 33 50 84 99 41 100 22 43
71 50 63 7 96 100 100 94 100 100 100 5 5 41 45 92 100 87 98 100 98 100 100 100 100 100 99 95 76 40 10 5 5 5 5 0 0 0 0 3 5 29 86 24 100 71 99 97 100 100 38 100 70 86
100 100 98 91 99 100 91 86 100 95 100 95 84 90 85 76 66 92 100 98 86 100 100 100 100 100 90 100 95 58 37 25 62 5 3 0 0 0 2 5 22 70 42 54 92 100 100 100 93 69 31 98 21 9
72 100 100 100 100 100 98 100 100 100 100 100 87 90 80 54 18 31 96 100 100 100 100 94 90 100 72 64 43 98 66 6 7 5 2 0 0 0 2 33 9 57 69 46 21 29 100 100 78 89 72 100 29 5
86 100 100 100 100 100 100 100 100 100 100 100 100 100 100 79 69 95 69 89 100 99 100 99 100 82 73 100 100 88 100 98 88 5 5 11 0 0 0 18 5 66 10 16 33 94 61 100 97 96 100 99 46 8
52 98 100 100 100 100 100 100 100 100 100 100 95 86 98 97 90 98 100 100 100 97 84 100 100 100 97 99 100 100 99 42 5 9 60 65 0 0 1 72 37 12 41 26 23 99 100 96 77 98 90 60 5 61
59 100 100 100 99 100 100 100 100 100 100 100 100 99 100 100 100 100 100 100 100 97 100 100 100 100 100 95 100 99 40 5 12 100 95 16 2 4 3 85 24 42 49 74 86 100 74 5 98 99 100 98 100 100
100 100 100 100 100 100 100 100 100 100 100 100 100 100 100 100 100 100 99 92 99 100 100 100 88 100 53 36 82 29 5 35 100 44 5 5 0 0 5 8 98 43 77 100 100 98 81 80 100 100 100 100 100 100
100 100 100 100 100 100 100 100 100 100 100 100 100 100 100 100 99 97 94 93 100 89 100 93 72 70 68 67 85 96 97 96 11 38 5 0 0 2 11 33 53 96 80 95 100 98 58 66 100 100 100 100 100 100
100 100 100 100 100 100 100 100 100 100 100 100 95 92 100 100 100 96 99 100 100 100 100 94 100 100 96 55 75 36 21 4 3 0 0 0 0 36 55 68 60 96 100 52 93 97 99 90 100 100 100 100 100 100
100 100 100 100 100 100 100 100 87 80 100 95 100 100 100 100 100 100 100 100 99 54 36 100 39 74 99 100 37 5 5 12 4 1 0 1 0 88 100 69 80 98 94 100 100 96 52 99 100 100 100 100 100 100
99 62 85 100 100 100 100 100 87 98 100 100 100 100 100 100 92 100 100 100 100 100 100 34 32 100 99 40 5 4 30 78 3 34 87 37 3 99 100 100 100 77 60 97 98 98 100 99 87 100 89 94 99 100
100 99 80 90 77 91 100 99 100 100 100 100 100 100 100 100 100 100 100 100 100 93 69 95 100 11 100 64 5 58 100 74 67 15 6 35 5 94 100 100 100 92 100 100 100 100 76 27 41 5 23 88 89 100
100 100 100 100 97 58 64 100 89 100 100 100 100 100 95 99 100 100 100 100 98 92 100 100 36 20 100 85 4 32 98 26 15 10 10 1 0 26 100 100 100 100 100 100 100 94 100 95 34 31 37 28 87 99
77 86 100 96 84 100 92 74 82 100 100 100 100 100 100 100 100 100 100 100 100 100 100 100 93 38 99 78 60 72 92 18 5 5 0 0 0 0 3 35 95 100 100 100 100 100 90 73 79 27 86 33 5 12
100 100 100 97 99 100 100 99 96 93 72 69 85 99 99 96 65 85 100 100 100 100 100 100 98 98 100 18 99 11 5 5 5 3 0 0 0 0 0 1 5 63 100 100 100 100 100 100 99 66 69 85 21 62